• In Russia
  • List of Countries
  • For 7 days
  • Water Temperature
  • Satellite Maps
  • Weather Map
  • Weather Widgets
  • user-avatar
    Login

    Hourly Weather Botogol

    Today, 16 July, Monday

    Time Temperature Precipitation Wind Pressure Humidity
    00:00 +12°C° 0 mm 2 mps 617 mmHg 89%
    01:00 +12°C° 0 mm 2 mps 617 mmHg 93%
    02:00 +10°C° 0 mm 2 mps 617 mmHg 94%
    03:00 +10°C° 0 mm 2 mps 617 mmHg 95%
    04:00 +10°C° 0 mm 2 mps 616 mmHg 96%
    05:00 +12°C° 0.1 mm 2 mps 617 mmHg 91%
    06:00 +13°C° 0.1 mm 2 mps 617 mmHg 87%
    07:00 +14°C° 0 mm 2 mps 618 mmHg 84%
    08:00 +14°C° 0.3 mm 2 mps 618 mmHg 82%
    09:00 +15°C° 0.3 mm 2 mps 618 mmHg 79%
    10:00 +14°C° 0.3 mm 3 mps 618 mmHg 77%
    11:00 +16°C° 0.4 mm 3 mps 618 mmHg 76%
    12:00 +16°C° 0.4 mm 3 mps 618 mmHg 74%
    13:00 +17°C° 0.4 mm 3 mps 618 mmHg 73%
    14:00 +17°C° 0.2 mm 3 mps 618 mmHg 71%
    15:00 +17°C° 0.2 mm 4 mps 618 mmHg 70%
    16:00 +17°C° 0.2 mm 4 mps 619 mmHg 68%
    17:00 +17°C° 0.2 mm 4 mps 618 mmHg 72%
    18:00 +16°C° 0.2 mm 3 mps 618 mmHg 76%
    19:00 +14°C° 0.2 mm 3 mps 618 mmHg 80%
    20:00 +13°C° 0.3 mm 3 mps 618 mmHg 84%
    21:00 +14°C° 0.3 mm 2 mps 618 mmHg 89%
    22:00 +13°C° 0.3 mm 2 mps 618 mmHg 94%
    23:00 +12°C° 0.4 mm 2 mps 618 mmHg 94%

    Tomorrow, 17 July, Tuesday

    Time Temperature Precipitation Wind Pressure Humidity
    00:00 +12°C° 0.4 mm 1 mps 618 mmHg 95%
    01:00 +12°C° 0.4 mm 1 mps 618 mmHg 95%
    02:00 +12°C° 0.3 mm 1 mps 618 mmHg 96%
    03:00 +11°C° 0.3 mm 1 mps 618 mmHg 96%
    04:00 +11°C° 0.3 mm 1 mps 618 mmHg 96%
    05:00 +12°C° 0.1 mm 1 mps 618 mmHg 93%
    06:00 +12°C° 0.1 mm 1 mps 618 mmHg 91%
    07:00 +12°C° 0.1 mm 1 mps 618 mmHg 89%
    08:00 +13°C° 0.2 mm 1 mps 618 mmHg 86%
    09:00 +14°C° 0.2 mm 1 mps 618 mmHg 82%
    10:00 +15°C° 0.2 mm 1 mps 619 mmHg 79%
    11:00 +15°C° 0.2 mm 2 mps 619 mmHg 77%
    12:00 +16°C° 0.2 mm 2 mps 619 mmHg 75%
    13:00 +16°C° 0.2 mm 2 mps 619 mmHg 73%
    14:00 +17°C° 0.1 mm 2 mps 618 mmHg 70%
    15:00 +18°C° 0.1 mm 3 mps 618 mmHg 68%
    16:00 +18°C° 0.1 mm 3 mps 618 mmHg 65%
    17:00 +18°C° 0.1 mm 3 mps 618 mmHg 68%
    18:00 +17°C° 0.1 mm 3 mps 618 mmHg 71%
    19:00 +17°C° 0.1 mm 3 mps 618 mmHg 74%
    20:00 +15°C° 0.1 mm 2 mps 618 mmHg 80%
    21:00 +14°C° 0.1 mm 2 mps 618 mmHg 87%
    22:00 +13°C° 0.1 mm 1 mps 618 mmHg 93%
    23:00 +12°C° 0 mm 1 mps 617 mmHg 93%

    Day after tomorrow, 18 July, Wednesday

    Time Temperature Precipitation Wind Pressure Humidity
    00:00 +12°C° 0 mm 1 mps 617 mmHg 94%
    01:00 +12°C° 0 mm 1 mps 617 mmHg 94%
    02:00 +12°C° 0 mm 1 mps 617 mmHg 94%
    03:00 +12°C° 0 mm 1 mps 617 mmHg 94%
    04:00 +12°C° 0 mm 1 mps 617 mmHg 94%
    05:00 +13°C° 0.1 mm 1 mps 617 mmHg 89%
    06:00 +14°C° 0.1 mm 1 mps 618 mmHg 85%
    07:00 +15°C° 0.1 mm 1 mps 618 mmHg 80%
    08:00 +16°C° 0.3 mm 1 mps 618 mmHg 76%
    09:00 +18°C° 0.3 mm 1 mps 619 mmHg 71%
    10:00 +19°C° 0.3 mm 1 mps 619 mmHg 66%
    11:00 +20°C° 0.2 mm 1 mps 619 mmHg 63%
    12:00 +20°C° 0.2 mm 2 mps 619 mmHg 60%
    13:00 +20°C° 0.2 mm 2 mps 619 mmHg 56%
    14:00 +21°C° 0.4 mm 2 mps 619 mmHg 56%
    15:00 +21°C° 0.4 mm 2 mps 619 mmHg 56%
    16:00 +21°C° 0.4 mm 3 mps 619 mmHg 56%
    17:00 +20°C° 0.7 mm 3 mps 618 mmHg 60%
    18:00 +20°C° 0.7 mm 3 mps 618 mmHg 64%
    19:00 +19°C° 0.7 mm 2 mps 618 mmHg 69%
    20:00 +17°C° 0.5 mm 2 mps 618 mmHg 75%
    21:00 +16°C° 0.5 mm 2 mps 617 mmHg 82%
    22:00 +14°C° 0.5 mm 1 mps 617 mmHg 88%
    23:00 +14°C° 0.1 mm 1 mps 617 mmHg 89%

    19 July, Thursday

    Time Temperature Precipitation Wind Pressure Humidity
    00:00 +13°C° 0.1 mm 1 mps 617 mmHg 89%
    01:00 +13°C° 0.1 mm 1 mps 617 mmHg 90%
    02:00 +13°C° 0.2 mm 1 mps 617 mmHg 90%
    03:00 +13°C° 0.2 mm 1 mps 617 mmHg 91%
    04:00 +13°C° 0.2 mm 1 mps 616 mmHg 91%
    05:00 +14°C° 0.6 mm 1 mps 617 mmHg 89%
    06:00 +13°C° 0.6 mm 0 mps 617 mmHg 86%
    07:00 +14°C° 0.6 mm 0 mps 617 mmHg 84%
    08:00 +15°C° 0.7 mm 1 mps 618 mmHg 83%
    09:00 +16°C° 0.7 mm 1 mps 618 mmHg 82%
    10:00 +16°C° 0.7 mm 1 mps 618 mmHg 80%
    11:00 +18°C° 0.4 mm 1 mps 618 mmHg 77%
    12:00 +19°C° 0.4 mm 1 mps 617 mmHg 73%
    13:00 +18°C° 0.4 mm 2 mps 617 mmHg 70%
    14:00 +18°C° 0.8 mm 2 mps 617 mmHg 70%
    15:00 +19°C° 0.8 mm 2 mps 617 mmHg 71%
    16:00 +19°C° 0.8 mm 3 mps 617 mmHg 72%
    17:00 +18°C° 0.6 mm 3 mps 617 mmHg 77%
    18:00 +17°C° 0.6 mm 3 mps 617 mmHg 82%
    19:00 +16°C° 0.6 mm 2 mps 617 mmHg 87%
    20:00 +15°C° 0.4 mm 2 mps 617 mmHg 90%
    21:00 +14°C° 0.4 mm 2 mps 617 mmHg 93%
    22:00 +13°C° 0.4 mm 2 mps 617 mmHg 96%
    23:00 +13°C° 0.4 mm 2 mps 616 mmHg 97%

    20 July, Friday

    Time Temperature Precipitation Wind Pressure Humidity
    00:00 +13°C° 0.4 mm 2 mps 616 mmHg 97%
    01:00 +13°C° 0.4 mm 2 mps 616 mmHg 97%
    02:00 +12°C° 1.5 mm 2 mps 616 mmHg 97%
    03:00 +12°C° 1.5 mm 2 mps 615 mmHg 97%
    04:00 +12°C° 1.5 mm 2 mps 615 mmHg 97%
    05:00 +12°C° 1.8 mm 2 mps 615 mmHg 96%
    06:00 +12°C° 1.8 mm 2 mps 615 mmHg 96%
    07:00 +10°C° 1.8 mm 2 mps 615 mmHg 95%
    08:00 +10°C° 2.7 mm 2 mps 615 mmHg 95%
    09:00 +10°C° 2.7 mm 2 mps 615 mmHg 95%
    10:00 +11°C° 2.7 mm 1 mps 615 mmHg 95%
    11:00 +10°C° 3.1 mm 1 mps 615 mmHg 95%
    12:00 +10°C° 3.1 mm 1 mps 615 mmHg 95%
    13:00 +10°C° 3.1 mm 1 mps 615 mmHg 94%
    14:00 +10°C° 2.7 mm 1 mps 615 mmHg 94%
    15:00 +10°C° 2.7 mm 1 mps 615 mmHg 94%
    16:00 +9°C° 2.7 mm 2 mps 615 mmHg 94%
    17:00 +9°C° 2.1 mm 2 mps 615 mmHg 95%
    18:00 +9°C° 2.1 mm 1 mps 615 mmHg 95%
    19:00 +9°C° 2.1 mm 1 mps 615 mmHg 96%
    20:00 +8°C° 1.9 mm 2 mps 615 mmHg 96%
    21:00 +8°C° 1.9 mm 2 mps 615 mmHg 96%
    22:00 +8°C° 1.9 mm 2 mps 615 mmHg 96%
    23:00 +8°C° 1.3 mm 2 mps 615 mmHg 96%

    21 July, Saturday

    Time Temperature Precipitation Wind Pressure Humidity
    00:00 +7°C° 1.3 mm 2 mps 615 mmHg 96%
    01:00 +7°C° 1.3 mm 2 mps 615 mmHg 96%
    02:00 +7°C° 0.9 mm 2 mps 615 mmHg 96%
    03:00 +7°C° 0.9 mm 2 mps 615 mmHg 96%
    04:00 +7°C° 0.9 mm 2 mps 615 mmHg 95%
    05:00 +8°C° 0.7 mm 2 mps 615 mmHg 95%
    06:00 +8°C° 0.7 mm 2 mps 616 mmHg 94%
    07:00 +8°C° 0.7 mm 2 mps 616 mmHg 93%
    08:00 +9°C° 0.3 mm 2 mps 616 mmHg 91%
    09:00 +10°C° 0.3 mm 2 mps 617 mmHg 88%
    10:00 +10°C° 0.3 mm 2 mps 617 mmHg 85%
    11:00 +13°C° 0.2 mm 2 mps 618 mmHg 79%
    12:00 +14°C° 0.2 mm 1 mps 618 mmHg 72%
    13:00 +15°C° 0.2 mm 1 mps 619 mmHg 65%
    14:00 +16°C° 0.1 mm 1 mps 619 mmHg 61%
    15:00 +18°C° 0.1 mm 1 mps 619 mmHg 57%
    16:00 +19°C° 0.1 mm 1 mps 619 mmHg 53%
    17:00 +18°C° 0.1 mm 1 mps 619 mmHg 56%
    18:00 +18°C° 0.1 mm 1 mps 619 mmHg 59%
    19:00 +18°C° 0.1 mm 1 mps 619 mmHg 62%
    20:00 +14°C° 0 mm 1 mps 618 mmHg 69%
    21:00 +12°C° 0 mm 1 mps 618 mmHg 76%
    22:00 +10°C° 0 mm 1 mps 617 mmHg 83%
    23:00 +10°C° 0 mm 1 mps 617 mmHg 84%
    Show more